| time (UTC) | temp C | wind direction | speed KPH | gust KPH | rain 1hr cm | rain 24hr cm | rain mn cm | humidity % | barometer mb |
| 20260504012702 | 11 | 110 | 0.0 | 0.0 | 0.00 | 0.00 | 0.00 | 65 | 1049.8 |
| 20260504012200 | 10 | 108 | 0.0 | 0.0 | 0.00 | 0.00 | 0.00 | 61 | 1049.5 |
| 20260504011657 | 11 | 108 | 0.0 | 0.0 | 0.00 | 0.00 | 0.00 | 66 | 1049.7 |
| 20260504011153 | 11 | 108 | 0.0 | 0.0 | 0.00 | 0.00 | 0.00 | 65 | 1049.5 |
| 20260504010649 | 11 | 110 | 0.0 | 0.0 | 0.00 | 0.00 | 0.00 | 59 | 1049.5 |
| 20260504010145 | 12 | 226 | 0.0 | 0.0 | 0.00 | 0.00 | 0.00 | 54 | 1049.5 |
| 20260504005642 | 12 | 258 | 0.0 | 0.0 | 0.00 | 0.00 | 0.00 | 52 | 1049.5 |
| 20260504005139 | 13 | 265 | 0.0 | 0.0 | 0.00 | 0.00 | 0.00 | 51 | 1049.3 |
| 20260504004637 | 13 | 115 | 0.0 | 1.6 | 0.00 | 0.00 | 0.00 | 50 | 1049.5 |
| 20260504004134 | 13 | 69 | 1.6 | 3.2 | 0.00 | 0.00 | 0.00 | 46 | 1049.4 |
| 20260504003630 | 13 | 72 | 3.2 | 3.2 | 0.00 | 0.00 | 0.00 | 46 | 1049.2 |
| 20260504003127 | 14 | 64 | 3.2 | 4.8 | 0.00 | 0.00 | 0.00 | 44 | 1049.3 |
| 20260504002624 | 14 | 83 | 6.4 | 9.7 | 0.00 | 0.00 | 0.00 | 43 | 1049.4 |
| 20260504002121 | 14 | 83 | 3.2 | 4.8 | 0.00 | 0.00 | 0.00 | 43 | 1049.4 |
| 20260504001619 | 15 | 81 | 4.8 | 9.7 | 0.00 | 0.00 | 0.00 | 42 | 1049.1 |
| 20260504001115 | 15 | 95 | 3.2 | 6.4 | 0.00 | 0.00 | 0.00 | 43 | 1049.4 |
| 20260504000613 | 15 | 72 | 3.2 | 4.8 | 0.00 | 0.00 | 0.00 | 43 | 1049.3 |
| 20260504000110 | 15 | 77 | 1.6 | 3.2 | 0.00 | 0.00 | 0.00 | 42 | 1049.3 |
| 20260503235608 | 15 | 142 | 4.8 | 6.4 | 0.00 | 0.00 | 0.00 | 41 | 1049.3 |
| 20260503235104 | 15 | 85 | 3.2 | 6.4 | 0.00 | 0.00 | 0.00 | 42 | 1049.4 |
| 20260503234602 | 15 | 92 | 3.2 | 9.7 | 0.00 | 0.00 | 0.00 | 40 | 1049.6 |
| 20260503234100 | 15 | 72 | 3.2 | 9.7 | 0.00 | 0.00 | 0.00 | 39 | 1049.6 |
| 20260503233556 | 16 | 130 | 4.8 | 11.3 | 0.00 | 0.00 | 0.00 | 39 | 1049.5 |
| 20260503233052 | 16 | 114 | 3.2 | 9.7 | 0.00 | 0.00 | 0.00 | 40 | 1049.9 |
| 20260503232549 | 16 | 106 | 3.2 | 4.8 | 0.00 | 0.00 | 0.00 | 38 | 1049.7 |
| 20260503232047 | 16 | 180 | 1.6 | 3.2 | 0.00 | 0.00 | 0.00 | 41 | 1049.7 |
| 20260503231544 | 16 | 130 | 1.6 | 3.2 | 0.00 | 0.00 | 0.00 | 41 | 1049.8 |
| 20260503231041 | 16 | 76 | 1.6 | 4.8 | 0.00 | 0.00 | 0.00 | 39 | 1049.9 |
| 20260503230538 | 16 | 143 | 1.6 | 6.4 | 0.00 | 0.00 | 0.00 | 38 | 1050.1 |
| 20260503230035 | 16 | 66 | 6.4 | 9.7 | 0.00 | 0.00 | 0.00 | 36 | 1050.1 |
| 20260503225532 | 17 | 68 | 1.6 | 4.8 | 0.00 | 0.00 | 0.00 | 33 | 1050.3 |
| 20260503225027 | 17 | 119 | 1.6 | 9.7 | 0.00 | 0.00 | 0.00 | 36 | 1050.1 |
| 20260503224525 | 17 | 171 | 4.8 | 6.4 | 0.00 | 0.00 | 0.00 | 34 | 1050.1 |
| 20260503224023 | 17 | 144 | 6.4 | 12.9 | 0.00 | 0.00 | 0.00 | 34 | 1050.2 |
| 20260503223520 | 17 | 216 | 8.0 | 14.5 | 0.00 | 0.00 | 0.00 | 35 | 1050.2 |
| 20260503223015 | 17 | 193 | 6.4 | 17.7 | 0.00 | 0.00 | 0.00 | 35 | 1050.1 |
| 20260503222514 | 18 | 144 | 3.2 | 11.3 | 0.00 | 0.00 | 0.00 | 33 | 1050.4 |
| 20260503222012 | 18 | 205 | 3.2 | 3.2 | 0.00 | 0.00 | 0.00 | 35 | 1050.5 |
| 20260503221510 | 17 | 86 | 3.2 | 11.3 | 0.00 | 0.00 | 0.00 | 33 | 1050.6 |
| 20260503221007 | 17 | 145 | 4.8 | 11.3 | 0.00 | 0.00 | 0.00 | 34 | 1050.4 |
| 20260503220503 | 18 | 187 | 6.4 | 9.7 | 0.00 | 0.00 | 0.00 | 31 | 1050.4 |
| 20260503220000 | 18 | 171 | 3.2 | 9.7 | 0.00 | 0.00 | 0.00 | 37 | 1050.6 |
| 20260503215457 | 18 | 266 | 3.2 | 4.8 | 0.00 | 0.00 | 0.00 | 32 | 1051.1 |
| 20260503214954 | 17 | 94 | 6.4 | 11.3 | 0.00 | 0.00 | 0.00 | 34 | 1050.7 |
| 20260503214452 | 17 | 229 | 4.8 | 16.1 | 0.00 | 0.00 | 0.00 | 36 | 1050.9 |
| 20260503213949 | 17 | 184 | 11.3 | 12.9 | 0.00 | 0.00 | 0.00 | 35 | 1050.3 |
| 20260503213447 | 17 | 202 | 11.3 | 12.9 | 0.00 | 0.00 | 0.00 | 35 | 1050.7 |
| 20260503212943 | 18 | 93 | 6.4 | 6.4 | 0.00 | 0.00 | 0.00 | 36 | 1050.5 |
| 20260503212441 | 18 | 186 | 4.8 | 6.4 | 0.00 | 0.00 | 0.00 | 33 | 1050.8 |
| 20260503211938 | 18 | 160 | 4.8 | 11.3 | 0.00 | 0.00 | 0.00 | 31 | 1051.0 |
| 20260503211435 | 17 | 167 | 4.8 | 11.3 | 0.00 | 0.00 | 0.00 | 33 | 1051.1 |
| 20260503210930 | 17 | 179 | 8.0 | 16.1 | 0.00 | 0.00 | 0.00 | 31 | 1051.2 |
| 20260503210427 | 17 | 245 | 12.9 | 17.7 | 0.00 | 0.00 | 0.00 | 34 | 1051.1 |
| 20260503205922 | 17 | 131 | 4.8 | 14.5 | 0.00 | 0.00 | 0.00 | 35 | 1051.0 |
| 20260503205420 | 17 | 75 | 3.2 | 6.4 | 0.00 | 0.00 | 0.00 | 32 | 1051.2 |
| 20260503204916 | 17 | 201 | 1.6 | 12.9 | 0.00 | 0.00 | 0.00 | 31 | 1051.1 |
| 20260503204413 | 17 | 224 | 8.0 | 14.5 | 0.00 | 0.00 | 0.00 | 34 | 1051.3 |
| 20260503203910 | 17 | 43 | 8.0 | 9.7 | 0.00 | 0.00 | 0.00 | 34 | 1051.1 |
| 20260503203408 | 18 | 195 | 3.2 | 12.9 | 0.00 | 0.00 | 0.00 | 31 | 1051.3 |
| 20260503202904 | 17 | 255 | 9.7 | 12.9 | 0.00 | 0.00 | 0.00 | 30 | 1051.5 |
| 20260503202403 | 17 | 244 | 6.4 | 11.3 | 0.00 | 0.00 | 0.00 | 33 | 1051.8 |
| 20260503201901 | 17 | 129 | 3.2 | 4.8 | 0.00 | 0.00 | 0.00 | 32 | 1052.2 |
| 20260503201357 | 17 | 104 | 3.2 | 6.4 | 0.00 | 0.00 | 0.00 | 36 | 1051.9 |
| 20260503200855 | 17 | 103 | 3.2 | 6.4 | 0.00 | 0.00 | 0.00 | 33 | 1052.2 |
| 20260503200350 | 17 | 200 | 9.7 | 14.5 | 0.00 | 0.00 | 0.00 | 34 | 1052.5 |
| 20260503195848 | 17 | 226 | 11.3 | 14.5 | 0.00 | 0.00 | 0.00 | 32 | 1052.5 |
| 20260503195344 | 17 | 217 | 3.2 | 14.5 | 0.00 | 0.00 | 0.00 | 37 | 1052.4 |
| 20260503194842 | 17 | 286 | 9.7 | 16.1 | 0.00 | 0.00 | 0.00 | 32 | 1052.5 |
| 20260503194337 | 17 | 0 | 6.4 | 12.9 | 0.00 | 0.00 | 0.00 | 30 | 1052.6 |
| 20260503193834 | 17 | 149 | 6.4 | 11.3 | 0.00 | 0.00 | 0.00 | 33 | 1052.9 |
| 20260503193330 | 17 | 246 | 3.2 | 9.7 | 0.00 | 0.00 | 0.00 | 37 | 1052.9 |
| 20260503192826 | 17 | 175 | 11.3 | 14.5 | 0.00 | 0.00 | 0.00 | 30 | 1052.9 |
| 20260503192321 | 17 | 256 | 3.2 | 11.3 | 0.00 | 0.00 | 0.00 | 32 | 1053.0 |
| 20260503191818 | 17 | 171 | 8.0 | 11.3 | 0.00 | 0.00 | 0.00 | 34 | 1053.1 |
| 20260503191315 | 17 | 197 | 11.3 | 12.9 | 0.00 | 0.00 | 0.00 | 31 | 1053.2 |
| 20260503190812 | 17 | 205 | 6.4 | 9.7 | 0.00 | 0.00 | 0.00 | 40 | 1053.2 |
| 20260503190309 | 17 | 145 | 6.4 | 11.3 | 0.00 | 0.00 | 0.00 | 34 | 1053.2 |
| 20260503185806 | 17 | 99 | 3.2 | 12.9 | 0.00 | 0.00 | 0.00 | 42 | 1053.4 |
| 20260503185302 | 16 | 72 | 8.0 | 25.7 | 0.00 | 0.00 | 0.00 | 38 | 1053.1 |
| 20260503184801 | 16 | 87 | 14.5 | 24.1 | 0.00 | 0.00 | 0.00 | 32 | 1053.5 |
| 20260503184258 | 17 | 128 | 4.8 | 17.7 | 0.00 | 0.00 | 0.00 | 35 | 1053.5 |
| 20260503183754 | 16 | 126 | 8.0 | 16.1 | 0.00 | 0.00 | 0.00 | 37 | 1053.6 |
| 20260503183252 | 16 | 202 | 3.2 | 6.4 | 0.00 | 0.00 | 0.00 | 36 | 1053.6 |
| 20260503182749 | 16 | 196 | 3.2 | 9.7 | 0.00 | 0.00 | 0.00 | 35 | 1053.7 |
| 20260503182248 | 16 | 258 | 3.2 | 6.4 | 0.00 | 0.00 | 0.00 | 35 | 1053.6 |
| 20260503181744 | 16 | 258 | 4.8 | 9.7 | 0.00 | 0.00 | 0.00 | 39 | 1053.9 |
| 20260503181241 | 16 | 91 | 6.4 | 17.7 | 0.00 | 0.00 | 0.00 | 32 | 1053.7 |
| 20260503180738 | 15 | 210 | 1.6 | 4.8 | 0.00 | 0.00 | 0.00 | 35 | 1053.6 |
| 20260503180236 | 16 | 83 | 6.4 | 16.1 | 0.00 | 0.00 | 0.00 | 32 | 1054.1 |
| 20260503175732 | 16 | 236 | 3.2 | 11.3 | 0.00 | 0.00 | 0.00 | 34 | 1054.3 |
| 20260503175230 | 15 | 110 | 11.3 | 14.5 | 0.00 | 0.00 | 0.00 | 36 | 1054.4 |
| 20260503174726 | 16 | 108 | 9.7 | 20.9 | 0.00 | 0.00 | 0.00 | 34 | 1054.4 |
| 20260503174225 | 16 | 81 | 4.8 | 9.7 | 0.00 | 0.00 | 0.00 | 33 | 1054.5 |
| 20260503173724 | 15 | 166 | 6.4 | 11.3 | 0.00 | 0.00 | 0.00 | 39 | 1054.4 |
| 20260503173221 | 15 | 107 | 6.4 | 12.9 | 0.00 | 0.00 | 0.00 | 34 | 1054.5 |
| 20260503172718 | 15 | 149 | 6.4 | 11.3 | 0.00 | 0.00 | 0.00 | 35 | 1054.6 |
| 20260503172215 | 15 | 53 | 9.7 | 12.9 | 0.00 | 0.00 | 0.00 | 37 | 1054.8 |
| 20260503171711 | 15 | 75 | 8.0 | 11.3 | 0.00 | 0.00 | 0.00 | 33 | 1054.7 |
| 20260503171209 | 15 | 91 | 11.3 | 24.1 | 0.00 | 0.00 | 0.00 | 34 | 1055.0 |
| 20260503170705 | 15 | 99 | 6.4 | 12.9 | 0.00 | 0.00 | 0.00 | 37 | 1054.8 |
| 20260503170202 | 15 | 81 | 8.0 | 12.9 | 0.00 | 0.00 | 0.00 | 33 | 1055.0 |
| 20260503160124 | 14 | 82 | 9.7 | 11.3 | 0.00 | 0.00 | 0.00 | 32 | 1055.9 |
| 20260503150554 | 13 | 260 | 8.0 | 11.3 | 0.00 | 0.00 | 0.00 | 36 | 1056.4 |
| 20260503130943 | 7 | 108 | 4.8 | 9.7 | 0.00 | 0.00 | 0.00 | 69 | 1056.2 |
| 20260503130441 | 7 | 90 | 9.7 | 11.3 | 0.00 | 0.00 | 0.00 | 68 | 1055.9 |
| 20260503110338 | -1 | 301 | 0.0 | 0.0 | 0.00 | 0.00 | 0.00 | 97 | 1055.4 |
| 20260503090229 | -1 | 55 | 0.0 | 0.0 | 0.00 | 0.00 | 0.00 | 96 | 1054.8 |
| 20260503081202 | 0 | 57 | 0.0 | 0.0 | 0.00 | 0.00 | 0.00 | 96 | 1054.7 |
| 20260503080657 | 0 | 57 | 0.0 | 0.0 | 0.00 | 0.00 | 0.00 | 96 | 1054.5 |
| 20260503080155 | -1 | 57 | 0.0 | 0.0 | 0.00 | 0.00 | 0.00 | 95 | 1054.5 |
| 20260503072632 | 0 | 4 | 0.0 | 0.0 | 0.00 | 0.00 | 0.00 | 95 | 1054.3 |
| 20260503072128 | 0 | 4 | 0.0 | 0.0 | 0.00 | 0.00 | 0.00 | 95 | 1054.3 |
| 20260503071625 | 0 | 4 | 0.0 | 0.0 | 0.00 | 0.00 | 0.00 | 95 | 1054.3 |
| 20260503071121 | 0 | 4 | 0.0 | 0.0 | 0.00 | 0.00 | 0.00 | 95 | 1054.3 |
| 20260503070619 | 0 | 4 | 0.0 | 0.0 | 0.00 | 0.00 | 0.00 | 95 | 1054.3 |
| 20260503070117 | 0 | 4 | 0.0 | 0.0 | 0.00 | 0.00 | 0.00 | 95 | 1054.4 |
| 20260503055037 | 0 | 76 | 0.0 | 0.0 | 0.00 | 0.00 | 0.00 | 92 | 1054.4 |
| 20260503054533 | 1 | 76 | 0.0 | 0.0 | 0.00 | 0.00 | 0.00 | 92 | 1054.5 |
| 20260503054031 | 1 | 76 | 0.0 | 0.0 | 0.00 | 0.00 | 0.00 | 93 | 1054.6 |
| 20260503053528 | 1 | 76 | 0.0 | 0.0 | 0.00 | 0.00 | 0.00 | 93 | 1054.5 |
| 20260503053026 | 1 | 76 | 0.0 | 0.0 | 0.00 | 0.00 | 0.00 | 93 | 1054.6 |
| 20260503052523 | 1 | 76 | 0.0 | 0.0 | 0.00 | 0.00 | 0.00 | 93 | 1054.5 |
| 20260503052019 | 1 | 76 | 0.0 | 0.0 | 0.00 | 0.00 | 0.00 | 93 | 1054.7 |
| 20260503051515 | 1 | 76 | 0.0 | 0.0 | 0.00 | 0.00 | 0.00 | 93 | 1054.6 |
| 20260503051013 | 1 | 76 | 0.0 | 0.0 | 0.00 | 0.00 | 0.00 | 93 | 1054.6 |
| 20260503050508 | 1 | 76 | 0.0 | 0.0 | 0.00 | 0.00 | 0.00 | 93 | 1054.5 |
| 20260503050006 | 1 | 76 | 0.0 | 0.0 | 0.00 | 0.00 | 0.00 | 93 | 1054.5 |
| 20260503045503 | 1 | 76 | 0.0 | 0.0 | 0.00 | 0.00 | 0.00 | 93 | 1054.7 |
| 20260503045000 | 1 | 76 | 0.0 | 0.0 | 0.00 | 0.00 | 0.00 | 93 | 1054.6 |
| 20260503044456 | 1 | 76 | 0.0 | 0.0 | 0.00 | 0.00 | 0.00 | 94 | 1054.5 |
| 20260503043954 | 1 | 66 | 0.0 | 0.0 | 0.00 | 0.00 | 0.00 | 94 | 1054.6 |
| 20260503043450 | 1 | 66 | 0.0 | 0.0 | 0.00 | 0.00 | 0.00 | 93 | 1054.6 |
| 20260503042946 | 1 | 66 | 0.0 | 0.0 | 0.00 | 0.00 | 0.00 | 93 | 1054.4 |
| 20260503042443 | 1 | 66 | 0.0 | 0.0 | 0.00 | 0.00 | 0.00 | 93 | 1054.4 |
| 20260503041940 | 2 | 66 | 0.0 | 0.0 | 0.00 | 0.00 | 0.00 | 93 | 1054.4 |
| 20260503041437 | 2 | 66 | 0.0 | 0.0 | 0.00 | 0.00 | 0.00 | 93 | 1054.4 |
| 20260503040934 | 2 | 66 | 0.0 | 0.0 | 0.00 | 0.00 | 0.00 | 93 | 1054.3 |
| 20260503040432 | 2 | 66 | 0.0 | 0.0 | 0.00 | 0.00 | 0.00 | 93 | 1054.3 |
| 20260503035929 | 2 | 66 | 0.0 | 0.0 | 0.00 | 0.00 | 0.00 | 93 | 1054.3 |
| 20260503035425 | 2 | 66 | 0.0 | 0.0 | 0.00 | 0.00 | 0.00 | 93 | 1054.5 |
| 20260503034923 | 2 | 44 | 0.0 | 0.0 | 0.00 | 0.00 | 0.00 | 93 | 1054.5 |
| 20260503034420 | 2 | 269 | 0.0 | 0.0 | 0.00 | 0.00 | 0.00 | 93 | 1054.5 |
| 20260503033917 | 2 | 269 | 0.0 | 0.0 | 0.00 | 0.00 | 0.00 | 93 | 1054.3 |
| 20260503033415 | 2 | 272 | 0.0 | 0.0 | 0.00 | 0.00 | 0.00 | 93 | 1054.2 |
| 20260503032913 | 2 | 272 | 0.0 | 0.0 | 0.00 | 0.00 | 0.00 | 92 | 1054.4 |
| 20260503032411 | 2 | 272 | 0.0 | 0.0 | 0.00 | 0.00 | 0.00 | 92 | 1054.5 |
| 20260503031908 | 2 | 272 | 0.0 | 0.0 | 0.00 | 0.00 | 0.00 | 92 | 1054.1 |
| 20260503031406 | 2 | 16 | 0.0 | 0.0 | 0.00 | 0.00 | 0.00 | 92 | 1054.1 |
| 20260503030902 | 2 | 17 | 0.0 | 0.0 | 0.00 | 0.00 | 0.00 | 91 | 1054.2 |
| 20260503030359 | 3 | 17 | 0.0 | 0.0 | 0.00 | 0.00 | 0.00 | 91 | 1054.1 |
| 20260503025855 | 3 | 17 | 0.0 | 0.0 | 0.00 | 0.00 | 0.00 | 91 | 1054.1 |
| 20260503025352 | 3 | 17 | 0.0 | 0.0 | 0.00 | 0.00 | 0.00 | 91 | 1054.1 |
| 20260503024850 | 3 | 17 | 0.0 | 0.0 | 0.00 | 0.00 | 0.00 | 91 | 1054.2 |
| 20260503024346 | 3 | 17 | 0.0 | 0.0 | 0.00 | 0.00 | 0.00 | 91 | 1054.0 |
| 20260503023843 | 3 | 338 | 0.0 | 0.0 | 0.00 | 0.00 | 0.00 | 90 | 1054.0 |
| 20260503023341 | 3 | 329 | 0.0 | 0.0 | 0.00 | 0.00 | 0.00 | 89 | 1053.8 |
| 20260503022838 | 3 | 347 | 0.0 | 0.0 | 0.00 | 0.00 | 0.00 | 89 | 1053.7 |
| 20260503022337 | 3 | 348 | 0.0 | 0.0 | 0.00 | 0.00 | 0.00 | 88 | 1053.8 |
| 20260503021834 | 3 | 348 | 0.0 | 0.0 | 0.00 | 0.00 | 0.00 | 87 | 1053.6 |
| 20260503021330 | 3 | 348 | 0.0 | 0.0 | 0.00 | 0.00 | 0.00 | 88 | 1053.5 |
| 20260503020828 | 3 | 261 | 0.0 | 0.0 | 0.00 | 0.00 | 0.00 | 88 | 1053.6 |
| 20260503020326 | 4 | 261 | 0.0 | 0.0 | 0.00 | 0.00 | 0.00 | 87 | 1053.4 |
| 20260503015822 | 4 | 259 | 0.0 | 0.0 | 0.00 | 0.00 | 0.00 | 86 | 1053.2 |
| 20260503015319 | 5 | 276 | 0.0 | 0.0 | 0.00 | 0.00 | 0.00 | 84 | 1053.3 |
| 20260503014814 | 5 | 261 | 0.0 | 0.0 | 0.00 | 0.00 | 0.00 | 82 | 1053.3 |
| 20260503014313 | 5 | 89 | 0.0 | 0.0 | 0.00 | 0.00 | 0.00 | 81 | 1053.2 |
| 20260503013810 | 5 | 89 | 0.0 | 0.0 | 0.00 | 0.00 | 0.00 | 79 | 1053.1 |
| 20260503013307 | 5 | 89 | 0.0 | 0.0 | 0.00 | 0.00 | 0.00 | 82 | 1053.0 |
| 20260503012804 | 6 | 88 | 0.0 | 0.0 | 0.00 | 0.00 | 0.00 | 80 | 1052.8 |